Location: Unspecified
(0.0000°N, 0.0000°E)
Time: 15:00:25
(UTC+00:00)

Tiros 1 - Visible Passes

Search period start: 02 March 2015 00:00
Search period end: 12 March 2015 00:00
Orbit: 632 x 667 km, 48.4° (Epoch: 01 March)

Date Brightness Start Highest point End Pass type
(mag) Time Alt. Az. Time Alt. Az. Time Alt. Az.
02 Mar 8.5 05:40:25 10° NNW 05:44:47 40° NE 05:49:10 10° ESE visible
03 Mar 10.0 04:27:58 10° NNE 04:29:11 11° NE 04:30:43 10° ENE visible
04 Mar 8.5 04:52:04 11° NNW 04:56:05 36° NE 05:00:24 10° ESE visible
05 Mar 7.2 05:18:46 14° NW 05:22:47 63° SW 05:27:24 10° SSE visible
06 Mar 8.6 04:07:42 33° ENE 04:07:42 33° ENE 04:11:37 10° ESE visible
06 Mar 8.7 05:46:10 10° W 05:49:33 19° SW 05:52:45 10° S visible
07 Mar 7.1 04:34:20 68° SSW 04:34:20 68° SSW 04:38:44 10° SSE visible
08 Mar 8.6 05:00:55 21° SW 05:00:55 21° SW 05:04:15 10° S visible
09 Mar 9.9 03:49:38 12° SE 03:49:38 12° SE 03:50:03 10° SE visible
